EW9741 Weather Reports


Display with metric or nautical units.
time (UTC)temp
F
wind
direction
speed
MPH
gust
MPH
rain 1hr
in
rain 24hr
in
rain mn
in
humidity
%
barometer
mb
20260904021515 82 281 0.0 0.0 0.00 0.00 0.00 75 1014.8
20260904020008 82 282 0.0 0.0 0.00 0.00 0.00 73 1014.8
20260904014506 83 281 0.0 0.0 0.00 0.00 0.00 72 1014.8
20260904013004 83 281 0.0 0.0 0.00 0.00 0.00 71 1014.9
20260904011502 84 281 0.0 0.0 0.00 0.00 0.00 70 1014.8
20260904010107 85 281 0.0 0.0 0.00 0.00 0.00 68 1014.8
20260904004559 86 281 0.0 0.0 0.00 0.00 0.00 65 1014.6
20260904003100 87 281 0.0 0.0 0.00 0.00 0.00 62 1014.4
20260904001549 89 281 0.0 0.0 0.00 0.00 0.00 58 1014.3
20260904000046 90 282 0.0 0.0 0.00 0.00 0.00 57 1014.2
20260903234543 91 271 0.0 0.0 0.00 0.00 0.00 56 1014.1
20260903233049 91 266 0.0 0.0 0.00 0.00 0.00 55 1014.0
20260903231538 92 267 0.0 0.0 0.00 0.00 0.00 52 1013.9
20260903230043 92 304 0.0 0.0 0.00 0.00 0.00 52 1013.9
20260903224537 93 273 0.0 0.0 0.00 0.00 0.00 52 1013.9
20260903223032 93 330 0.0 5.0 0.00 0.00 0.00 50 1013.8
20260903221531 94 296 0.0 0.0 0.00 0.00 0.00 48 1013.5
20260903220031 94 334 0.0 7.0 0.00 0.00 0.00 49 1013.3
20260903214531 95 291 0.0 0.0 0.00 0.00 0.00 47 1013.3
20260903213028 95 245 0.0 0.0 0.00 0.00 0.00 47 1013.3
20260903211528 94 299 1.0 10.0 0.00 0.00 0.00 47 1013.4
20260903210025 94 302 0.0 4.0 0.00 0.00 0.00 48 1013.3
20260903204529 94 294 0.0 5.0 0.00 0.00 0.00 48 1013.6
20260903203022 95 257 0.0 0.0 0.00 0.00 0.00 46 1013.7
20260903201522 95 288 0.0 0.0 0.00 0.00 0.00 47 1014.0
20260903200018 94 271 0.0 0.0 0.00 0.00 0.00 47 1014.4
20260903194517 94 290 0.0 0.0 0.00 0.00 0.00 48 1014.5
20260903193016 95 268 0.0 9.0 0.00 0.00 0.00 47 1014.6
20260903191514 94 284 0.0 0.0 0.00 0.00 0.00 47 1014.8
20260903190012 94 207 0.0 0.0 0.00 0.00 0.00 48 1014.8
20260903184513 93 295 0.0 9.0 0.00 0.00 0.00 48 1015.0
20260903183012 94 295 1.0 10.0 0.00 0.00 0.00 46 1015.1
20260903181512 93 288 0.0 8.0 0.00 0.00 0.00 48 1015.1
20260903180011 93 275 0.0 7.0 0.00 0.00 0.00 48 1015.2
20260903174511 93 271 0.0 0.0 0.00 0.00 0.00 49 1015.4
20260903173011 93 290 1.0 9.0 0.00 0.00 0.00 48 1015.5
20260903171512 93 304 0.0 0.0 0.00 0.00 0.00 47 1015.6
20260903170026 92 303 0.0 9.0 0.00 0.00 0.00 50 1015.7
20260903164510 92 316 0.0 0.0 0.00 0.00 0.00 50 1015.8
20260903163018 92 326 0.0 0.0 0.00 0.00 0.00 52 1016.0
20260903161509 92 278 0.0 0.0 0.00 0.00 0.00 50 1016.1
20260903160009 91 284 0.0 0.0 0.00 0.00 0.00 54 1016.2
20260903154509 92 167 0.0 0.0 0.00 0.00 0.00 58 1016.1
20260903153009 91 152 0.0 0.0 0.00 0.00 0.00 58 1016.1
20260903151513 90 271 0.0 0.0 0.00 0.00 0.00 58 1016.2
20260903150026 89 303 0.0 0.0 0.00 0.00 0.00 60 1016.2
20260903144516 88 258 0.0 0.0 0.00 0.00 0.00 65 1016.1
20260903143009 87 297 0.0 0.0 0.00 0.00 0.00 67 1016.1
20260903141506 86 287 0.0 0.0 0.00 0.00 0.00 67 1016.1
20260903140020 85 295 0.0 0.0 0.00 0.00 0.00 70 1016.2
20260903134507 85 305 0.0 0.0 0.00 0.00 0.00 70 1016.3
20260903133006 84 225 0.0 0.0 0.00 0.00 0.00 71 1016.4
20260903131506 83 274 0.0 0.0 0.00 0.00 0.00 72 1016.5
20260903130006 82 243 0.0 0.0 0.00 0.00 0.00 75 1016.6
20260903124505 81 261 0.0 0.0 0.00 0.00 0.00 76 1016.6
20260903123005 80 262 0.0 0.0 0.00 0.00 0.00 78 1016.7
20260903121504 79 127 0.0 0.0 0.00 0.00 0.00 80 1016.7
20260903120005 77 250 0.0 0.0 0.00 0.00 0.00 83 1016.6
20260903114504 76 223 0.0 0.0 0.00 0.00 0.00 84 1016.6
20260903113100 0 0.0 0.0 0.00 0.00 0.00 1016.5
20260903111555 0 0.0 0.0 0.00 0.00 0.00 1016.3
20260903110101 0 0.0 0.0 0.00 0.00 0.00 1016.1
20260903104549 0 0.0 0.0 0.00 0.00 0.00 1016.0
20260903103046 76 226 0.0 0.0 0.00 0.00 0.00 82 1015.8
20260903101544 77 259 0.0 0.0 0.00 0.00 0.00 82 1015.8
20260903100044 77 190 0.0 0.0 0.00 0.00 0.00 82 1015.8
20260903094555 77 178 0.0 0.0 0.00 0.00 0.00 82 1015.7
20260903093042 77 204 0.0 0.0 0.00 0.00 0.00 82 1015.8
20260903091551 77 126 0.0 0.0 0.00 0.00 0.00 82 1015.8
20260903090042 77 196 0.0 0.0 0.00 0.00 0.00 81 1015.7
20260903084547 77 228 0.0 0.0 0.00 0.00 0.00 81 1015.7
20260903083040 77 213 0.0 0.0 0.00 0.00 0.00 82 1015.7
20260903081539 77 153 0.0 0.0 0.00 0.00 0.00 82 1015.7
20260903080045 78 167 0.0 0.0 0.00 0.00 0.00 81 1015.6
20260903074544 78 235 0.0 0.0 0.00 0.00 0.00 81 1015.6
20260903073036 78 223 0.0 0.0 0.00 0.00 0.00 80 1015.6
20260903071535 78 171 0.0 0.0 0.00 0.00 0.00 80 1015.5
20260903070035 78 173 0.0 0.0 0.00 0.00 0.00 80 1015.5
20260903064534 78 173 0.0 0.0 0.00 0.00 0.00 79 1015.6
20260903063032 79 250 0.0 0.0 0.00 0.00 0.00 78 1015.6
20260903061537 79 216 0.0 0.0 0.00 0.00 0.00 77 1015.5
20260903060039 79 214 0.0 0.0 0.00 0.00 0.00 76 1015.5
20260903054529 80 189 0.0 0.0 0.00 0.00 0.00 76 1015.4
20260903053032 80 213 0.0 0.0 0.00 0.00 0.00 75 1015.4
20260903051528 80 221 0.0 0.0 0.00 0.00 0.00 75 1015.4
20260903050029 80 160 0.0 0.0 0.00 0.00 0.00 75 1015.3
20260903044525 81 194 0.0 0.0 0.00 0.00 0.00 74 1015.2
20260903043032 81 219 0.0 0.0 0.00 0.00 0.00 74 1015.2
20260903041530 81 216 0.0 0.0 0.00 0.00 0.00 74 1015.2
20260903040024 81 174 0.0 0.0 0.00 0.00 0.00 74 1015.3
20260903034523 81 218 0.0 0.0 0.00 0.00 0.00 73 1015.2
20260903033022 82 207 0.0 0.0 0.00 0.00 0.00 72 1015.3
20260903031520 82 221 0.0 0.0 0.00 0.00 0.00 71 1015.4
20260903030023 82 221 0.0 0.0 0.00 0.00 0.00 70 1015.5
20260903024517 83 176 0.0 0.0 0.00 0.00 0.00 69 1015.6
20260903023016 83 248 0.0 0.0 0.00 0.00 0.00 69 1015.6